Theta_e
306 313 310 306 306 304 304 304 303 300 298 299 299 300 299 297 298 298 300 302 298 299 303 303 298 292 291 290 289 289 288 287 287 287 287 286 287 287 287 286 285 284 284 283 283 283 283 282 282 281 281 280 280 280 280 280 280 279 279 279 279 279 280 280 281 281 282 282 282 282 283 283 283 284 284 284 283 283 284 285 286 286 286 285 285 285
306 310 306 304 304 302 302 303 303 300 299 300 299 299 299 297 298 297 299 300 298 299 301 302 298 292 291 290 289 289 287 287 286 286 286 286 286 286 286 286 285 284 284 283 283 283 282 282 281 281 280 280 280 280 280 279 279 278 278 278 278 278 279 280 280 281 280 281 281 281 282 282 283 283 283 283 284 284 283 283 284 285 285 284 284 284
311 306 302 303 302 300 302 304 302 301 300 300 299 299 300 298 298 298 300 300 299 297 297 300 298 292 290 290 289 288 287 287 286 286 286 285 285 285 285 285 285 284 283 282 282 282 282 281 281 280 280 280 280 280 279 279 278 278 278 278 278 278 278 279 280 280 279 280 281 281 281 281 282 282 282 283 283 284 283 282 282 283 283 283 283 284
310 304 300 301 300 299 301 305 304 302 301 300 299 300 300 298 297 298 299 299 297 296 296 299 298 292 289 289 288 288 288 287 286 287 286 285 285 285 284 284 284 283 283 282 282 282 281 281 281 280 280 280 280 279 279 278 278 278 278 278 277 277 277 277 278 278 278 279 279 278 278 279 280 281 281 282 282 283 283 282 283 283 283 283 283 283
306 302 300 303 304 301 299 303 303 300 301 299 299 300 299 298 297 296 297 296 295 296 297 298 298 294 290 288 288 288 288 287 286 286 285 285 285 285 284 284 284 283 282 282 281 281 281 281 280 280 280 279 279 279 278 278 278 278 278 278 277 277 277 277 277 276 276 277 276 276 276 276 277 279 280 281 281 282 281 281 282 282 283 283 282 282
305 300 299 303 305 304 301 301 299 298 300 299 299 300 299 298 296 295 295 295 295 296 297 296 297 297 292 289 288 288 287 287 286 285 284 285 285 285 284 283 283 283 282 282 281 281 281 280 280 280 280 279 279 279 278 278 278 278 278 278 277 277 277 277 276 276 276 276 275 275 275 275 276 277 278 280 280 280 280 280 280 281 282 282 282 282
302 301 302 301 302 305 304 302 298 297 300 300 299 299 297 297 296 296 295 296 296 296 296 296 296 297 294 291 289 287 287 287 286 285 284 284 284 284 283 282 283 282 281 281 281 281 280 280 280 279 279 279 279 279 279 278 278 278 278 278 277 277 277 277 276 276 276 275 275 275 274 274 275 275 275 276 277 278 278 278 279 280 280 281 281 281
303 304 305 302 303 305 304 302 299 296 298 301 300 297 296 296 295 296 295 295 295 294 295 296 296 297 296 293 290 288 288 287 285 285 284 283 283 283 283 283 283 282 281 281 281 281 280 280 280 279 279 279 279 279 279 279 278 278 278 278 278 277 277 277 276 276 276 275 275 274 274 274 274 274 274 274 275 276 277 277 278 279 279 280 281 281
302 301 301 300 303 304 301 300 299 296 298 301 299 296 296 296 296 296 296 295 294 294 295 296 294 296 297 294 290 288 288 286 286 285 284 284 283 284 284 283 283 282 282 281 281 281 280 280 280 279 279 279 279 279 279 279 278 278 278 278 277 277 277 277 276 276 276 275 275 274 274 274 273 273 273 273 274 275 277 277 278 279 279 280 280 280
301 299 299 299 301 302 300 301 300 298 298 300 298 297 296 296 296 295 295 296 295 295 297 296 293 295 296 294 291 289 288 288 287 285 284 284 284 284 283 283 282 282 282 281 281 280 280 280 280 279 279 279 279 279 279 279 278 278 278 278 277 277 277 277 276 276 276 275 275 274 274 273 273 273 273 273 274 276 277 277 278 278 279 279 280 280
301 300 300 300 300 300 300 302 301 298 299 299 298 298 297 296 296 298 297 297 296 296 297 296 294 294 295 295 295 291 288 288 286 284 284 284 284 283 283 283 282 282 282 281 281 281 280 280 280 279 279 278 278 279 279 279 278 278 278 277 277 277 277 276 276 276 276 275 274 274 274 273 273 273 273 273 274 276 277 277 277 278 278 279 280 280
303 303 302 301 301 299 299 300 299 299 299 297 296 297 297 297 296 300 301 298 296 297 296 295 294 294 294 296 295 288 285 285 285 283 283 283 284 284 283 283 282 282 281 281 281 281 280 279 279 279 279 278 278 279 279 279 278 278 277 277 277 277 277 277 276 276 275 275 274 274 273 273 272 272 272 273 274 275 276 276 277 278 279 279 279 279
306 304 300 299 299 298 299 299 298 299 298 296 297 298 298 297 296 296 298 296 297 298 296 294 294 294 294 293 290 285 283 284 284 284 284 283 284 284 283 283 282 282 281 281 281 280 280 279 279 278 278 278 278 278 278 279 278 278 278 277 277 277 277 276 276 276 275 274 274 273 273 272 272 272 272 272 273 275 275 275 277 278 279 279 278 278
304 303 299 299 299 298 299 299 297 297 296 295 297 298 298 297 295 296 296 295 297 297 294 293 293 294 296 292 286 283 283 284 283 284 284 283 284 283 283 282 282 282 281 281 281 280 280 279 279 279 278 278 278 278 279 279 278 278 278 277 277 277 277 276 276 275 274 274 273 273 272 272 271 271 271 272 273 274 274 275 276 277 277 277 277 277
302 302 301 300 298 298 299 297 296 296 295 295 296 297 297 296 295 296 296 295 295 295 294 294 294 296 296 290 285 283 283 284 284 284 284 284 284 283 283 282 282 282 282 281 281 280 280 279 279 279 279 278 278 278 278 278 278 278 277 277 277 277 277 276 275 274 274 273 272 272 272 271 271 271 271 272 273 273 273 274 274 274 274 275 276 276
301 301 300 299 297 298 298 296 296 296 296 296 296 296 297 296 295 296 295 295 294 293 294 295 296 297 293 286 283 284 284 285 286 286 286 285 284 283 283 282 282 282 282 281 281 280 280 280 280 279 279 279 278 278 278 278 278 277 277 277 277 277 276 275 274 274 273 272 272 271 271 271 270 271 271 272 272 273 273 272 272 272 273 274 274 275
300 300 299 299 299 299 297 296 297 296 296 297 296 296 296 294 294 295 294 293 293 293 294 296 295 294 292 287 284 284 286 286 286 287 286 284 283 283 283 282 282 282 282 281 281 280 280 280 279 279 279 279 278 278 278 278 277 277 277 277 277 276 275 274 273 273 272 272 271 271 270 270 270 270 270 271 271 272 271 271 271 272 272 273 273 273
298 299 298 298 300 299 296 295 298 297 295 297 297 295 294 293 294 295 293 292 293 293 294 295 293 292 293 290 285 284 286 286 286 285 284 283 283 283 282 282 282 282 281 281 280 280 280 279 279 279 279 279 278 278 278 277 277 277 277 277 276 275 274 273 273 272 271 271 270 270 270 269 269 269 269 270 270 270 270 271 271 271 271 271 271 271
298 299 298 297 298 298 296 295 297 297 294 295 296 294 293 294 294 294 292 291 293 293 292 293 292 291 293 290 286 286 286 286 285 284 283 283 283 282 282 282 282 281 280 280 280 280 279 279 279 279 279 278 278 278 277 277 277 277 276 275 274 274 273 272 272 271 271 270 270 270 269 269 269 269 269 269 270 270 270 270 270 270 270 270 270 269
297 299 299 296 296 296 296 295 295 296 294 295 297 295 294 293 293 292 292 292 292 292 292 293 291 291 290 288 286 287 287 285 284 283 283 282 281 281 281 281 281 280 280 279 279 279 279 279 278 278 278 278 278 278 277 277 277 276 275 274 274 273 272 272 271 270 270 270 269 269 268 268 268 269 269 269 269 269 269 269 269 269 269 268 268 268
296 299 298 296 296 295 296 295 294 294 294 296 298 296 293 292 292 292 292 292 292 291 291 291 290 290 289 286 285 288 286 284 283 282 281 281 280 280 280 280 280 279 279 279 279 279 278 278 278 278 278 278 278 277 277 276 276 275 274 274 273 272 271 271 270 270 269 269 269 268 268 268 268 269 269 269 269 268 268 268 268 267 267 267 268 268
296 298 296 296 296 295 295 294 294 293 293 295 296 294 292 291 290 290 290 291 291 290 289 289 289 290 289 286 286 287 284 283 283 281 280 280 280 280 280 279 279 279 279 279 278 278 278 278 277 277 277 277 276 275 275 275 275 274 273 273 272 271 271 270 270 269 269 268 268 268 268 268 268 268 268 268 268 268 268 267 267 267 267 267 267 267
295 296 295 296 296 295 295 294 293 294 294 295 294 290 289 290 289 289 289 288 289 288 288 289 289 289 289 287 287 286 283 282 282 280 280 280 279 280 279 278 278 278 278 278 277 278 277 276 275 275 275 275 274 274 274 275 275 274 273 272 271 271 270 270 269 268 268 268 267 268 268 268 268 267 268 268 267 267 267 267 266 266 267 267 267 267
296 297 295 295 295 294 295 294 293 295 295 294 293 288 287 288 287 287 287 287 287 287 287 288 288 288 288 288 286 284 283 282 281 280 280 280 280 279 277 277 278 277 276 276 276 276 275 274 273 273 273 272 272 272 273 274 273 272 271 270 270 270 270 269 268 268 267 267 267 267 267 267 267 267 267 267 266 266 266 266 266 266 266 267 267 267
296 298 295 295 295 295 295 294 294 295 294 292 292 287 286 287 286 286 288 288 287 287 287 287 287 287 287 286 285 283 282 281 280 280 280 280 279 276 276 277 277 275 275 275 274 272 272 271 271 271 271 271 271 271 271 271 271 270 270 269 269 269 269 268 267 267 267 267 267 267 267 266 266 266 266 266 266 266 266 266 266 266 267 267 267 267
294 295 294 294 296 295 295 295 294 294 293 292 291 287 285 286 286 286 288 287 287 287 287 287 286 286 286 285 284 282 281 280 280 280 280 279 277 275 276 276 275 274 274 273 271 271 270 270 270 270 270 270 269 269 269 269 269 269 268 268 268 268 267 267 267 267 267 267 267 267 266 266 266 266 266 266 266 266 266 266 266 266 267 267 267 267
294 294 294 295 296 295 295 294 293 293 292 292 291 287 285 286 285 285 287 286 287 287 287 286 286 285 284 283 282 281 280 280 279 279 278 277 275 275 275 275 274 273 273 272 270 270 270 270 270 269 269 268 268 268 268 267 268 268 268 267 267 267 267 266 266 266 266 267 266 266 266 266 266 266 266 266 266 266 266 266 266 267 267 267 267 267
295 295 295 295 295 294 293 292 291 291 291 291 289 286 285 286 285 285 286 286 287 286 285 286 285 284 283 282 281 280 279 279 278 277 277 275 274 275 274 273 272 272 272 271 270 269 269 269 268 268 267 267 267 267 267 267 267 267 267 266 266 266 266 266 266 266 266 266 266 266 266 266 266 266 266 266 266 266 266 266 266 267 267 267 267 267
295 295 294 294 293 292 291 290 290 291 291 290 287 285 285 286 286 286 286 286 286 285 285 285 283 282 281 281 280 280 279 278 277 276 276 274 274 274 273 272 271 270 270 270 269 268 267 267 267 267 267 266 267 267 267 266 266 266 265 265 265 266 266 266 266 266 266 266 266 266 266 266 266 266 266 266 266 266 266 266 267 267 267 267 267 267
293 296 296 293 292 291 291 292 292 291 291 289 286 285 285 285 286 286 286 285 285 284 284 283 282 281 281 280 280 279 279 277 276 275 274 273 273 273 271 271 270 269 269 269 269 267 266 266 266 266 266 266 266 266 266 265 265 265 265 265 265 265 265 265 265 265 265 266 266 266 266 266 266 266 266 266 266 266 266 266 267 267 267 267 267 267
291 295 294 291 291 292 292 293 293 291 290 288 286 285 284 285 285 285 284 284 284 283 282 281 280 280 280 280 279 278 277 276 275 274 273 273 273 271 270 269 269 269 269 269 267 266 265 266 266 265 265 265 265 264 265 265 264 264 264 264 265 265 265 265 265 265 265 265 265 265 266 266 266 266 266 266 266 266 266 266 266 266 267 267 267 267
293 293 292 291 291 293 292 292 291 289 289 288 286 284 284 284 284 284 284 284 283 282 281 280 279 279 280 279 278 277 276 275 274 272 272 272 271 270 269 269 268 268 268 267 266 265 265 265 265 264 264 264 263 264 264 264 264 264 264 264 264 264 264 264 264 265 265 265 265 265 265 265 265 265 266 266 266 266 266 266 266 266 267 267 267 267
291 291 292 292 292 293 292 290 289 289 290 290 286 284 284 284 283 283 283 283 282 281 280 279 279 279 279 278 277 276 274 273 272 272 272 271 270 269 269 268 268 268 267 265 264 264 265 265 264 263 263 263 263 263 263 263 263 263 264 264 264 264 264 264 264 264 264 264 265 265 265 265 265 265 265 265 265 266 266 266 266 266 267 267 267 267
291 291 292 291 292 294 291 288 289 291 292 291 286 283 283 283 283 282 283 282 281 281 280 280 279 279 278 276 275 274 273 272 271 271 272 270 269 269 268 268 268 267 266 264 264 264 264 264 263 262 262 262 262 262 263 263 263 263 263 263 263 263 263 264 264 264 264 264 264 264 265 265 265 265 265 265 265 265 266 266 266 266 267 267 267 267
293 292 291 289 290 293 291 289 291 294 292 288 285 283 283 283 283 282 282 282 281 280 280 279 278 278 276 275 274 273 272 271 271 271 271 270 269 268 268 267 267 266 264 264 263 264 263 262 262 262 261 262 262 262 262 262 262 263 263 263 263 263 263 263 263 264 264 264 264 264 264 264 264 265 265 265 265 265 265 266 266 266 266 267 267 267
294 293 291 290 290 291 290 289 291 292 289 286 284 284 283 282 282 282 281 281 281 280 279 278 277 276 275 274 273 272 271 270 271 272 271 269 269 268 267 267 266 265 264 263 263 263 262 261 261 261 261 261 261 261 262 262 262 262 263 263 263 263 263 263 263 263 263 263 264 264 264 264 264 264 264 265 265 265 265 266 266 266 266 267 267 267
292 293 291 291 291 291 290 289 289 290 289 287 285 284 282 282 282 281 280 281 280 280 278 277 276 275 273 273 272 270 270 270 270 271 270 269 268 268 267 266 265 264 263 263 262 262 261 261 261 261 261 261 261 261 261 261 262 262 262 262 262 262 263 263 263 263 263 263 263 263 264 264 264 264 264 264 265 265 265 265 266 266 266 267 267 268
290 291 291 291 291 290 289 289 289 291 291 288 284 283 282 281 281 280 280 280 280 279 278 276 274 273 272 271 270 269 269 269 270 270 269 269 268 267 266 265 264 263 262 262 261 261 261 260 260 260 260 260 260 261 261 261 262 262 262 262 262 262 262 262 262 263 263 263 263 263 263 263 263 264 264 264 264 265 265 265 266 266 266 267 267 268
290 289 291 293 291 289 289 289 289 292 292 286 283 283 282 281 281 280 280 280 280 279 277 275 273 272 272 270 269 269 268 267 268 269 269 268 267 266 265 264 263 262 262 261 261 261 260 260 260 260 260 260 260 260 260 261 261 262 262 262 262 262 262 262 262 262 262 263 263 263 263 263 263 264 264 264 264 265 265 265 266 266 267 267 268 268
293 291 291 292 291 288 288 289 289 290 289 285 283 282 281 280 281 280 279 280 280 278 276 274 272 271 270 269 268 268 267 267 267 268 268 268 266 265 264 263 262 261 261 260 260 260 260 260 260 260 259 260 260 260 260 261 261 261 261 261 261 262 262 262 262 262 262 262 262 263 263 263 263 264 264 264 264 265 265 266 266 267 267 267 268 268
294 291 289 290 289 288 289 289 288 289 287 285 283 282 280 281 281 279 278 279 279 277 275 273 272 271 269 268 268 267 267 267 267 268 268 267 265 264 263 262 261 261 260 260 260 260 260 259 259 259 259 259 259 260 260 261 261 261 261 261 261 261 261 261 262 262 262 262 262 262 263 263 264 264 264 265 265 265 266 266 267 267 267 268 268 268
293 292 289 288 289 289 290 289 289 289 286 283 283 282 280 281 281 279 279 279 277 275 274 272 271 270 268 267 267 267 267 267 267 267 267 265 264 263 262 261 261 260 260 259 259 259 259 259 259 259 259 259 259 259 260 260 261 261 261 261 261 261 261 261 261 261 262 262 262 262 263 263 264 264 265 265 265 266 266 267 267 268 268 268 269 269
291 291 291 290 288 289 290 290 290 291 286 282 283 283 281 280 280 279 278 277 275 273 272 271 270 268 267 267 267 266 266 266 266 266 265 264 263 262 261 260 260 260 259 259 259 259 259 259 258 258 258 258 259 259 260 260 260 260 260 260 260 261 261 261 261 261 261 262 262 263 263 264 264 264 265 266 266 266 267 267 268 268 269 269 269 269
289 290 292 291 288 289 291 292 292 291 286 282 282 282 280 279 279 277 275 274 274 272 271 269 268 268 267 267 266 266 266 265 265 264 263 263 262 261 260 260 259 259 259 259 259 259 258 258 258 258 258 258 259 259 260 260 260 260 260 260 260 260 261 261 261 261 261 262 262 263 263 264 264 265 265 266 266 267 267 268 268 269 269 269 270 270
291 290 292 290 289 289 290 290 289 287 285 283 281 281 279 278 277 274 273 273 272 271 270 268 267 267 267 266 266 265 265 265 264 263 262 262 261 260 260 259 259 259 259 258 258 258 258 258 258 258 258 258 258 259 259 259 260 260 260 260 260 260 261 261 261 261 261 262 262 263 263 264 264 265 266 266 267 267 267 268 269 269 270 270 271 271
289 288 288 287 287 288 287 286 286 285 285 283 281 280 279 278 275 273 272 272 270 270 269 268 267 266 267 266 265 264 264 264 263 262 262 261 261 260 259 259 259 258 258 258 258 258 258 258 257 257 258 258 258 259 259 259 259 259 259 260 260 260 260 260 261 261 261 262 262 263 263 264 265 265 266 266 267 267 268 269 269 269 270 271 272 272
287 286 286 286 286 287 287 287 286 284 283 282 281 280 279 276 274 272 271 270 269 269 268 267 267 267 266 265 264 264 264 263 262 261 261 260 260 259 259 258 258 258 258 258 258 257 257 257 257 257 257 258 258 258 258 259 259 259 259 260 260 260 260 260 261 261 261 262 262 263 263 264 265 265 266 267 267 268 269 269 270 270 271 272 273 273
289 285 286 286 286 286 287 287 284 282 282 281 280 279 277 275 273 272 270 269 268 268 267 266 266 266 265 265 264 264 263 262 261 261 260 260 259 259 258 258 258 258 257 257 257 257 257 257 257 257 257 257 258 258 258 258 259 259 259 259 260 260 260 260 260 261 261 262 262 263 263 264 265 265 266 267 267 268 269 270 271 272 273 273 274 275
288 286 286 286 286 285 286 285 283 282 282 281 280 278 275 273 272 271 270 268 267 267 266 266 266 266 265 264 264 263 262 262 261 260 260 259 259 258 258 258 257 257 257 257 257 257 257 256 257 257 257 257 258 258 258 258 258 259 259 259 260 260 260 260 260 261 261 262 262 263 263 264 265 265 266 267 268 269 270 270 271 273 274 274 275 276
286 288 287 286 287 288 288 285 283 282 282 281 279 277 274 271 271 270 268 267 266 266 266 265 265 265 264 264 263 262 261 261 260 260 259 258 258 258 257 257 257 257 257 257 257 257 256 256 256 256 257 257 257 258 258 258 258 259 259 259 260 260 260 260 260 261 261 262 262 263 263 264 265 265 266 267 268 269 270 271 272 273 274 274 275 276
287 289 289 288 289 289 286 283 281 281 281 280 279 276 272 270 270 269 267 267 266 266 265 264 264 264 263 263 263 262 261 260 260 259 258 258 257 257 257 257 257 256 256 256 256 256 256 256 256 256 257 257 257 257 258 258 258 259 259 259 260 260 260 260 260 261 261 262 262 263 263 264 265 265 266 267 268 268 269 271 272 273 274 274 274 275
Wind_Speed
3 5 5 2 4 6 6 4 3 2 2 4 6 5 6 9 10 8 7 6 1 1 6 3 3 5 5 5 5 4 6 8 6 6 5 4 4 4 5 5 6 6 5 11 14 10 10 12 12 12 11 13 15 14 14 16 17 20 24 26 26 28 29 29 28 28 28 27 28 28 28 29 30 30 30 29 27 25 24 23 22 22 21 21 20 19
5 7 3 5 6 6 4 2 2 1 2 3 4 7 7 6 11 12 7 5 3 1 7 1 5 4 4 4 4 4 5 6 5 5 4 4 4 3 4 5 5 5 5 8 9 7 8 8 10 10 9 12 12 11 11 13 16 19 23 24 26 28 27 27 27 26 27 27 27 27 28 30 30 29 30 30 28 24 23 23 23 23 22 22 21 21
5 4 5 6 3 1 1 3 3 2 3 4 4 5 7 5 9 12 5 1 4 2 7 3 4 2 3 4 4 4 3 4 3 4 4 3 4 4 4 4 5 4 4 4 5 6 7 7 8 8 9 12 11 8 8 12 15 18 21 23 26 26 25 25 24 24 26 26 25 26 27 28 29 28 28 29 27 24 24 24 23 23 24 24 23 22
3 3 4 2 3 3 3 4 5 4 3 3 6 5 7 7 7 9 7 6 3 4 6 2 4 2 2 3 3 3 1 3 3 3 3 2 4 5 4 4 4 4 3 3 3 5 7 8 9 8 9 12 9 5 7 12 14 17 19 22 24 23 22 23 22 24 25 24 24 26 27 27 27 27 27 26 26 25 25 25 25 25 26 24 23 23
3 4 1 3 5 6 5 6 6 6 5 3 5 5 8 10 8 8 11 13 9 3 1 3 2 2 2 3 1 1 1 1 2 3 3 2 4 4 4 4 3 3 2 3 3 4 7 9 10 8 9 12 8 3 7 12 14 17 20 21 22 20 20 21 21 24 24 23 25 27 28 29 28 28 27 25 25 25 26 27 27 28 27 25 24 23
3 4 1 4 6 7 5 6 4 4 6 6 5 6 8 9 9 11 13 13 9 4 1 2 4 4 3 5 6 4 3 3 3 4 4 3 3 4 3 3 2 1 1 3 3 4 7 10 11 10 10 13 9 3 8 12 14 18 20 21 22 20 21 21 21 22 22 23 25 26 26 26 25 26 26 26 26 27 28 28 28 29 28 27 25 22
2 3 4 5 4 6 6 4 3 3 6 7 4 3 5 7 9 14 15 8 5 6 3 0 3 4 2 6 8 6 5 6 5 4 4 3 3 3 2 1 1 1 2 3 4 5 8 10 11 11 12 14 11 6 8 12 13 16 19 21 22 21 22 21 20 21 20 21 23 24 24 23 22 23 25 29 30 30 31 30 30 30 29 29 26 23
3 6 6 6 5 5 5 4 3 2 4 7 4 3 7 10 10 14 12 6 3 5 5 2 1 4 4 4 7 8 6 7 6 5 3 3 3 2 0 1 2 3 3 3 4 5 8 12 13 13 13 15 13 9 9 11 12 14 18 20 20 20 20 20 19 20 19 19 21 23 24 23 24 25 28 31 31 31 32 31 31 30 30 30 28 25
1 6 7 5 5 4 3 5 4 1 2 7 7 8 9 9 9 10 8 6 3 3 5 4 2 3 6 2 2 5 5 9 9 5 3 3 2 1 2 4 4 4 4 4 5 6 10 14 15 15 15 15 14 12 13 12 12 14 16 16 16 16 17 17 17 18 19 20 21 22 23 24 26 28 32 34 32 31 31 30 31 30 30 30 28 27
1 3 2 2 2 1 3 7 4 1 3 8 10 12 10 7 5 3 2 4 3 4 5 7 4 3 7 3 2 2 4 9 6 4 4 2 1 2 4 5 5 4 4 5 7 10 13 16 17 17 17 17 16 15 16 15 13 13 13 13 13 14 15 15 15 16 18 19 21 22 23 24 28 31 34 35 32 30 28 28 29 29 29 29 29 27
5 2 2 2 1 3 4 6 3 3 4 8 9 10 10 7 2 2 2 2 4 5 5 6 2 2 7 5 3 2 2 2 3 6 3 3 4 5 5 6 6 5 5 6 8 12 16 18 20 20 19 20 19 17 18 18 14 12 13 13 13 15 15 14 15 15 17 18 19 21 22 24 28 32 34 34 31 28 26 27 29 30 29 29 28 24
8 3 0 2 1 0 2 4 2 2 3 5 5 6 10 9 4 3 3 3 3 5 5 5 3 1 5 7 0 4 7 9 8 5 2 5 8 7 6 7 7 6 7 8 8 11 14 16 18 20 21 22 21 19 20 20 17 14 13 13 14 16 16 15 16 16 17 18 19 20 22 25 28 31 33 33 30 27 26 27 29 29 27 25 22 19
6 2 3 4 2 3 5 6 6 5 5 7 5 5 7 7 5 5 6 4 2 5 6 9 7 2 6 6 5 8 9 9 7 4 0 5 10 9 6 7 7 7 8 9 8 9 10 13 16 19 21 23 23 21 22 22 20 16 15 15 16 18 18 17 16 16 17 19 20 21 24 27 30 32 34 34 30 27 25 26 26 23 19 16 15 15
5 4 5 5 2 3 6 5 7 7 6 7 4 3 4 5 8 9 7 7 6 7 10 10 4 3 6 4 6 7 7 6 5 2 3 6 9 8 7 8 8 8 8 8 9 8 9 13 17 19 21 23 24 24 24 25 23 18 17 18 18 20 20 16 15 15 18 20 21 23 26 29 31 33 35 33 29 27 25 25 23 20 18 16 16 17
4 5 5 4 3 3 4 1 4 6 6 4 1 1 2 3 7 8 7 9 10 10 10 7 1 3 6 3 4 6 5 3 2 1 3 5 7 6 6 7 9 9 9 9 9 9 13 18 21 22 23 23 24 25 25 25 23 19 18 19 19 21 19 15 14 16 18 21 24 26 29 31 33 33 32 31 28 27 26 25 21 21 24 23 19 17
1 6 5 2 3 2 3 3 3 1 4 3 1 2 2 3 4 6 8 11 13 11 8 4 1 3 1 3 5 5 3 2 4 6 6 7 8 7 7 9 9 10 10 10 11 12 18 24 25 25 25 25 25 25 25 24 21 18 18 20 21 19 15 13 15 17 20 23 26 29 31 33 33 32 31 30 28 26 25 24 24 25 26 22 18 17
1 7 7 5 5 2 2 6 3 2 4 2 2 3 5 5 3 3 9 10 10 11 6 2 4 5 2 2 4 5 5 8 10 11 10 11 13 12 11 11 10 10 11 11 11 13 19 24 25 25 26 26 26 26 26 23 18 17 22 22 18 13 11 14 17 20 23 25 28 30 31 33 33 32 31 30 28 26 25 25 25 24 22 20 18 17
1 7 7 3 4 3 2 3 3 1 2 3 3 5 5 2 3 1 6 7 7 9 5 3 9 10 6 3 3 5 8 12 13 12 12 14 16 15 13 13 12 12 12 12 13 16 19 23 25 26 27 27 26 26 23 19 17 22 23 18 11 9 13 17 20 23 25 27 29 30 31 33 33 32 31 30 29 28 26 25 22 21 21 20 17 15
2 4 7 1 2 8 4 3 3 3 2 2 3 4 3 5 4 3 2 4 8 10 8 8 10 8 6 5 4 7 12 15 15 13 14 17 17 16 16 16 15 14 13 13 14 14 16 22 26 28 29 27 26 23 19 18 21 21 15 9 9 14 18 20 23 25 27 28 29 30 32 34 32 31 29 26 24 22 20 19 18 18 18 18 18 19
1 1 5 0 1 7 6 4 5 5 3 2 3 3 3 3 4 3 0 0 5 8 9 11 10 6 5 3 4 10 14 16 16 15 15 18 19 19 18 15 14 14 14 14 13 12 15 21 25 29 30 27 24 21 22 23 20 14 9 11 15 19 21 23 25 26 28 29 30 32 33 32 29 27 25 21 19 18 17 17 17 18 19 21 23 24
1 1 4 6 4 4 4 2 5 6 5 5 5 5 5 3 3 6 2 2 1 5 8 10 9 7 5 1 4 12 15 14 15 17 18 19 21 20 17 14 14 15 14 13 12 12 16 20 24 27 28 26 23 24 27 25 17 12 14 17 20 21 23 25 25 27 29 29 31 32 31 28 25 23 22 21 20 18 18 19 19 20 22 24 25 25
0 1 4 7 7 6 6 3 3 3 0 2 5 5 4 3 5 8 5 1 2 4 6 7 8 8 5 1 5 12 14 12 15 19 21 21 22 19 15 15 17 16 13 12 13 15 16 19 24 27 28 28 27 30 34 27 17 17 20 21 23 24 24 24 26 28 29 30 31 30 26 24 23 22 22 21 19 19 20 21 22 23 24 25 26 26
1 2 2 6 5 8 11 5 2 1 3 3 3 5 4 3 4 4 6 6 5 4 6 6 8 8 2 1 9 13 12 13 17 20 21 21 19 16 15 18 17 14 14 14 16 17 19 22 26 29 30 31 31 33 34 27 19 20 22 23 25 26 26 26 27 28 29 30 29 26 23 23 22 23 23 21 19 21 22 23 25 26 26 26 26 25
1 2 3 7 5 6 6 3 2 2 4 4 3 5 5 3 2 2 5 5 4 3 5 6 8 8 4 6 13 12 12 16 19 19 20 20 17 16 19 19 14 14 17 16 15 19 23 26 29 30 31 32 31 31 31 28 24 23 24 26 28 29 29 28 28 30 30 29 26 24 23 23 22 23 23 22 23 25 26 26 26 26 25 25 25 24
2 2 3 7 9 8 7 5 3 3 5 6 3 5 6 5 5 5 2 2 2 5 8 8 8 11 11 13 13 12 15 21 19 17 18 17 16 19 20 16 14 17 18 15 15 18 23 25 27 28 28 28 30 30 30 31 29 28 28 30 30 29 28 29 31 32 30 27 24 22 22 22 22 22 23 24 26 28 28 27 26 25 24 23 22 22
1 1 1 2 6 10 10 8 10 10 8 7 4 6 6 7 7 5 4 4 4 8 10 8 10 15 16 16 14 14 19 22 20 20 18 14 17 20 17 14 15 17 15 14 15 17 19 21 24 27 27 27 29 29 29 32 33 31 30 29 28 28 29 32 33 31 27 24 23 22 22 22 22 23 24 26 27 28 27 27 25 24 22 22 22 23
2 0 2 4 4 7 9 11 14 13 10 11 8 6 6 6 4 3 4 5 7 11 10 8 12 19 20 17 15 18 21 20 20 23 20 16 20 20 16 14 16 16 13 11 13 14 16 18 22 27 28 29 31 31 31 32 31 28 27 28 30 30 31 32 30 27 25 23 22 23 23 23 24 25 26 26 27 27 26 25 23 22 23 23 24 24
4 2 4 4 7 9 10 14 16 12 10 10 8 7 8 9 7 6 5 7 10 10 11 14 17 19 18 16 17 19 19 19 22 23 19 19 21 17 14 15 17 17 15 12 13 16 17 17 21 27 30 31 32 32 30 29 28 27 27 30 32 30 29 29 27 25 24 23 23 24 25 25 25 25 25 24 24 24 24 23 23 24 25 25 24 24
5 3 3 2 8 10 11 14 13 9 7 4 4 6 9 9 9 9 8 10 11 9 13 21 22 17 15 16 18 18 17 19 22 21 19 21 20 15 16 18 18 19 19 18 17 17 17 19 23 28 30 29 29 30 28 28 30 30 30 30 30 28 28 27 26 25 25 24 25 25 25 25 24 24 23 23 23 24 23 24 24 24 24 24 24 24
3 3 2 1 9 12 12 13 10 8 7 3 3 5 9 9 9 10 10 11 12 12 15 19 19 15 12 14 17 17 15 17 18 18 20 21 18 16 18 19 20 21 21 20 18 16 17 21 24 26 28 29 30 32 30 29 31 31 30 29 29 28 28 27 27 26 26 25 25 26 26 26 25 24 24 25 24 24 24 24 23 23 23 23 23 24
2 3 1 1 5 10 9 9 9 11 10 5 3 7 11 12 11 9 10 11 13 13 13 13 15 13 10 12 16 16 17 19 20 21 22 20 16 17 18 18 20 23 22 19 18 18 18 21 23 25 29 31 33 34 31 29 31 30 29 29 29 29 29 28 27 27 26 26 26 26 26 26 26 25 25 25 25 24 24 24 23 23 23 23 23 23
3 3 2 3 4 7 6 9 16 17 9 2 3 9 12 11 11 9 10 12 13 13 12 11 11 11 11 15 18 19 21 24 23 23 22 16 14 17 19 20 21 23 20 18 18 19 19 20 23 27 30 32 33 33 30 30 31 30 30 30 30 29 29 28 27 27 27 27 26 27 27 26 26 26 26 25 25 25 24 24 24 23 23 23 22 22
2 3 4 3 4 8 9 12 16 15 7 1 2 7 10 10 11 13 15 16 12 6 7 9 9 11 15 19 21 22 23 23 22 21 19 14 14 16 19 21 22 20 18 16 18 20 20 22 25 29 31 31 30 31 31 30 31 30 30 30 30 30 28 28 28 27 27 27 27 27 27 27 27 27 26 26 25 25 25 24 24 24 23 23 22 22
2 3 3 1 2 8 13 13 11 7 6 3 2 5 10 11 12 16 19 19 11 5 6 11 13 15 17 17 18 21 21 19 19 19 13 12 14 17 20 21 21 19 17 17 19 21 23 26 28 30 31 30 30 31 30 30 30 30 30 31 30 29 29 28 28 28 28 28 28 28 28 28 28 27 27 27 26 26 25 24 24 24 23 23 22 21
2 3 2 1 1 5 8 10 10 7 4 3 3 6 10 11 14 18 20 15 8 8 14 17 17 18 17 15 14 16 17 18 20 16 9 13 15 17 19 21 20 18 18 17 20 23 26 28 30 31 32 30 31 31 30 30 31 31 31 30 30 29 29 29 28 28 28 28 28 29 29 29 29 29 28 27 27 26 25 24 24 24 23 23 22 22
1 2 1 0 1 4 5 7 5 7 4 2 2 5 9 10 13 18 18 11 6 9 14 17 17 18 18 17 14 13 16 18 15 8 7 14 16 18 19 19 18 18 20 21 24 25 27 29 30 31 31 31 31 31 30 31 32 31 31 30 30 29 29 29 29 28 28 29 29 29 30 30 30 29 29 28 28 27 25 25 25 26 25 24 23 23
3 2 1 2 2 2 6 5 4 7 5 2 2 7 8 8 9 10 12 9 6 8 12 14 16 18 18 18 18 17 19 16 8 1 6 13 18 20 21 21 21 22 24 27 28 27 28 30 31 31 31 32 31 31 30 31 31 31 31 30 29 29 29 29 29 29 30 30 30 30 31 30 30 30 29 29 28 27 26 27 27 28 28 26 25 25
3 2 2 2 2 2 4 6 4 6 5 1 5 9 8 10 12 5 4 5 4 10 15 14 15 17 17 18 19 19 18 15 9 5 8 16 22 24 24 24 25 26 26 28 29 29 29 31 31 31 31 31 31 31 31 31 31 30 29 29 29 30 29 29 30 31 31 31 31 32 32 31 31 30 30 29 28 28 28 29 29 30 28 26 25 26
5 3 4 3 2 2 3 3 4 6 4 1 6 9 7 12 15 8 3 4 5 14 17 14 13 16 16 16 17 15 12 12 12 11 12 19 26 27 25 25 26 27 27 28 28 28 30 32 31 31 32 31 32 33 32 31 30 29 28 29 29 29 29 30 31 32 32 32 33 33 33 32 32 31 31 31 30 30 31 31 31 30 27 25 24 25
5 4 4 3 2 1 1 1 3 4 4 3 8 9 9 11 10 7 9 10 11 17 17 12 11 13 14 14 13 9 7 8 11 14 18 24 27 27 26 26 27 28 28 29 29 28 29 30 30 31 32 32 33 33 32 30 29 28 28 29 29 28 29 31 33 33 33 34 34 35 35 34 32 31 32 32 30 30 31 31 31 30 28 27 26 26
3 2 2 1 3 3 2 3 4 4 5 5 7 7 11 12 5 5 9 12 13 18 15 10 11 12 12 11 9 6 6 9 13 18 22 26 25 24 26 27 27 27 27 28 29 29 29 29 29 30 31 32 33 33 31 29 28 27 28 29 28 29 31 33 34 34 34 35 36 36 36 35 33 32 32 31 30 30 31 31 30 29 28 28 28 27
2 2 1 1 2 3 2 3 4 5 5 4 7 4 7 9 5 4 8 9 12 15 12 10 11 11 11 10 8 8 10 13 16 18 21 23 23 23 26 27 27 27 28 28 28 28 28 29 29 29 31 32 32 31 30 29 28 28 28 28 28 31 34 35 36 36 36 36 36 36 35 34 33 33 32 32 31 31 32 31 30 28 27 26 26 26
1 1 3 3 2 2 2 2 3 4 2 8 13 8 6 6 5 6 7 8 9 10 10 10 10 10 11 11 10 12 14 15 16 16 18 21 23 23 26 27 26 26 28 28 28 28 28 28 28 29 31 32 31 30 29 28 28 28 28 29 31 34 36 36 36 37 36 36 35 35 34 34 35 34 32 32 31 30 30 30 29 27 25 23 24 24
2 2 1 3 1 2 2 0 2 5 3 7 8 5 2 2 2 4 6 8 8 7 7 8 8 10 11 12 12 14 14 14 15 16 16 18 21 23 25 25 25 27 27 27 28 28 28 28 28 29 30 31 30 29 28 28 28 29 30 32 35 37 37 37 37 37 36 35 35 35 35 34 34 34 32 32 30 28 28 28 28 27 25 23 22 22
3 5 4 2 2 2 3 6 7 7 4 4 4 2 1 1 2 3 5 7 7 7 6 7 9 11 12 12 13 13 12 13 15 15 15 17 20 22 23 24 25 27 27 27 27 27 28 28 28 29 30 30 30 29 28 29 29 30 32 35 38 38 37 38 38 37 36 35 35 35 35 35 34 33 32 31 30 28 27 26 26 25 25 24 23 21
2 3 4 2 3 4 5 8 9 7 5 5 3 2 3 3 3 3 5 5 6 6 6 7 10 11 12 12 12 10 11 13 14 14 15 17 20 21 23 23 24 26 27 28 28 28 29 28 28 29 30 31 30 29 30 31 31 31 34 38 38 37 37 38 39 37 35 35 35 34 34 34 34 34 33 32 30 28 26 25 24 23 23 23 23 22
1 2 3 2 1 3 4 6 4 3 5 5 2 1 2 3 2 2 3 5 6 7 8 9 12 13 13 12 11 11 12 14 14 13 14 16 18 21 22 23 24 26 27 27 28 29 29 29 29 30 30 31 31 31 32 34 34 34 36 37 37 37 38 38 38 36 35 35 34 33 32 32 33 34 34 33 31 28 26 26 25 23 22 21 21 22
1 2 2 3 3 3 6 7 5 4 7 5 0 1 2 2 2 2 3 5 8 9 10 12 13 13 12 12 12 13 13 13 13 13 13 15 18 20 21 23 25 26 27 27 28 29 29 29 29 30 29 30 32 34 35 36 36 36 36 36 37 38 39 38 37 36 35 33 32 32 31 31 31 32 33 33 33 29 26 26 25 24 22 21 21 22
3 3 3 2 2 5 7 6 4 5 6 3 2 2 2 1 1 3 4 6 7 8 10 13 13 12 12 13 14 14 12 12 15 15 14 16 18 20 22 24 25 26 27 27 27 28 29 30 30 30 30 30 32 34 36 36 37 37 37 36 37 38 38 38 36 34 33 32 31 31 31 30 30 30 30 31 32 32 29 27 24 22 21 23 23 22
3 3 2 1 2 5 4 2 1 3 5 4 0 2 2 2 1 3 3 5 6 6 9 12 12 13 13 13 14 14 12 12 16 17 16 16 18 21 23 25 25 26 26 26 27 28 30 31 31 31 30 31 32 34 35 36 37 37 37 36 37 37 37 37 34 32 31 31 30 30 30 30 30 30 30 29 29 31 32 31 27 21 19 22 25 24
4 5 4 3 4 5 3 3 3 2 5 5 2 2 3 2 2 2 3 5 6 8 10 11 11 12 12 12 12 13 13 14 16 18 17 17 19 22 24 25 25 26 26 26 27 29 32 33 33 32 31 32 33 34 35 36 37 38 38 37 38 38 38 35 32 29 29 29 29 30 30 29 29 29 29 28 28 28 28 30 31 28 24 24 25 24
Wind_Direction
67 54 34 338 298 300 297 252 215 257 245 274 297 289 287 293 297 288 268 267 126 323 276 249 62 28 351 348 28 55 93 96 99 97 97 101 98 103 103 103 98 95 82 54 43 38 51 48 30 23 17 6 4 7 11 17 18 13 10 6 3 360 358 0 358 354 351 347 343 341 339 335 330 328 325 323 323 323 323 318 312 310 311 312 312 312
65 58 357 269 260 270 294 263 200 326 322 314 304 302 309 290 293 295 274 288 49 32 289 329 64 15 344 356 31 65 89 95 105 107 103 102 96 98 98 97 91 83 69 53 36 29 46 37 20 17 12 4 2 10 21 24 20 13 12 9 4 1 359 359 356 353 350 347 344 341 338 334 330 327 325 321 320 318 319 319 315 311 310 311 312 311
47 47 316 282 265 214 32 67 88 35 358 327 313 308 312 303 305 302 271 347 49 343 304 17 72 339 339 12 32 46 90 117 117 122 130 117 103 99 91 86 85 74 53 40 17 17 22 6 2 3 2 358 355 14 29 22 18 14 12 9 4 2 360 357 354 351 348 347 346 343 340 336 330 327 325 323 319 314 313 316 316 312 311 311 310 309
24 344 317 317 41 48 357 21 51 23 14 325 313 318 305 304 320 310 302 327 339 273 286 57 87 304 353 51 41 10 39 103 104 108 120 124 115 112 102 88 86 86 47 2 350 3 359 344 342 344 349 347 342 14 28 18 18 14 11 8 4 2 359 355 353 350 348 346 346 345 341 337 332 327 325 325 322 317 314 314 312 310 310 309 307 306
333 291 316 63 30 33 352 349 27 4 343 300 278 275 285 300 304 288 299 313 315 297 277 75 30 283 165 136 157 218 288 109 126 115 109 107 106 105 98 88 89 97 50 347 332 343 340 329 325 325 330 333 330 356 15 13 15 10 8 4 0 359 356 352 349 348 350 348 347 347 344 341 336 330 327 325 323 319 316 314 310 307 305 303 302 301
312 286 15 25 2 30 18 347 14 0 338 317 272 235 257 297 307 294 304 317 325 334 52 55 330 296 169 186 203 203 219 212 197 165 149 126 97 94 86 79 76 85 13 329 313 315 315 311 314 312 314 322 315 312 357 3 5 3 2 357 355 355 351 346 344 345 347 345 346 347 345 342 336 329 323 319 316 314 312 309 308 307 302 297 295 294
323 335 52 44 360 16 19 349 341 9 356 321 275 202 269 307 309 301 309 319 320 311 289 285 292 277 234 213 207 200 215 217 215 197 164 131 88 85 82 69 350 280 294 307 288 284 296 301 305 301 302 314 308 295 332 344 351 355 354 351 350 348 344 340 336 338 339 337 340 341 338 335 330 324 317 311 307 305 305 304 302 302 299 295 291 285
326 353 19 34 23 19 14 344 321 17 1 299 287 10 319 309 301 296 305 300 282 308 302 292 232 252 271 246 201 188 212 234 222 205 158 111 78 64 155 229 250 260 264 282 274 271 286 291 292 290 295 310 307 284 295 318 334 345 346 344 343 339 337 333 328 329 329 329 331 332 330 326 323 320 315 310 304 300 301 299 297 296 296 294 288 280
337 3 353 10 22 19 351 312 305 20 323 278 297 321 299 287 283 279 292 290 287 357 319 315 25 289 288 313 152 168 214 246 231 192 115 80 46 352 266 251 245 250 255 265 271 270 279 282 282 284 291 305 302 274 274 295 316 332 336 334 331 328 326 322 317 317 316 318 322 325 324 320 319 318 316 312 303 298 299 297 295 293 292 291 287 279
308 343 288 116 64 303 285 293 296 91 281 290 309 313 298 282 265 249 288 300 328 14 316 314 13 332 301 328 115 172 250 254 238 128 85 45 298 268 269 268 256 251 258 266 272 270 272 276 279 284 287 293 292 271 268 284 299 316 323 319 316 315 314 307 302 304 304 308 316 319 319 317 316 317 317 314 304 298 298 296 295 293 288 286 283 276
302 311 188 125 91 223 250 282 277 193 257 315 329 320 317 310 289 79 51 21 353 333 287 294 352 23 313 306 169 176 323 340 58 79 64 343 304 274 277 287 272 256 266 273 273 271 273 277 282 283 280 282 286 274 269 277 285 297 306 307 306 306 304 296 291 293 295 303 312 314 315 314 314 316 315 312 304 296 296 297 297 293 286 280 275 267
335 9 129 308 344 83 282 292 306 238 276 342 344 331 333 326 337 11 358 41 359 295 274 292 312 125 292 296 329 80 51 52 62 71 33 332 324 300 285 295 283 264 273 278 277 276 276 279 281 281 278 280 285 279 272 273 274 284 298 301 299 299 298 290 285 285 292 305 312 312 313 313 313 314 312 307 299 293 295 298 297 293 284 273 265 260
339 324 303 316 353 30 359 331 333 340 348 354 352 358 346 326 330 336 331 349 297 271 308 322 322 277 259 298 36 70 65 63 68 70 259 299 318 313 290 299 296 279 282 285 287 285 280 279 279 278 277 276 278 280 282 281 275 279 296 299 293 293 294 287 280 285 298 308 312 313 314 313 313 313 310 305 296 290 294 296 297 299 292 277 270 273
331 300 333 360 345 18 41 14 337 333 341 344 342 357 353 335 328 320 318 323 300 294 313 319 321 272 275 326 50 83 84 81 86 77 224 259 301 304 283 296 299 289 290 293 295 292 283 283 283 285 284 280 280 283 289 288 276 275 292 297 291 291 292 284 279 293 306 311 313 314 314 313 313 311 308 303 294 291 294 294 296 303 305 297 289 286
338 310 340 21 326 350 51 44 294 299 307 310 225 157 48 357 316 307 312 317 312 311 317 331 8 266 294 343 70 88 85 102 132 256 253 269 299 293 278 295 301 302 307 309 307 303 300 301 302 304 302 294 288 285 288 286 274 271 289 295 291 292 290 284 291 306 312 313 314 315 315 314 313 310 306 300 293 290 291 291 297 304 304 301 294 287
294 270 272 322 310 36 40 300 265 316 311 279 158 75 10 303 276 285 302 306 309 311 310 326 280 240 262 73 77 68 51 332 322 328 330 336 341 333 318 315 313 316 319 317 316 314 314 314 314 313 309 303 295 289 289 285 273 276 294 296 291 288 286 293 308 314 315 315 316 315 315 314 312 309 304 299 294 290 290 292 298 301 299 296 293 290
335 276 284 331 336 113 93 311 314 34 333 328 25 344 290 262 208 272 306 304 307 308 298 309 315 303 325 77 62 38 356 332 336 344 354 354 346 338 329 324 319 318 317 315 317 316 317 318 317 317 315 310 303 297 295 291 285 296 304 299 291 287 297 312 318 318 317 317 316 315 315 313 311 307 303 300 296 294 295 296 296 296 295 294 293 293
222 284 296 347 319 268 220 300 294 286 357 21 351 309 282 259 137 96 316 307 307 307 305 334 322 320 328 338 15 5 339 339 349 357 357 348 340 334 331 327 321 320 320 319 320 317 318 322 325 326 323 319 315 309 305 303 307 313 309 300 298 312 322 321 319 318 317 317 316 315 314 312 309 306 301 298 296 295 295 295 293 293 294 294 292 297
151 293 303 116 267 298 324 26 328 312 29 32 310 317 358 344 344 19 331 309 320 313 306 316 316 321 336 338 343 338 339 351 358 357 350 342 338 335 331 328 325 328 329 325 324 323 327 332 333 332 328 326 325 323 322 322 322 320 312 308 323 327 325 321 320 320 319 318 316 314 312 311 308 304 300 298 299 300 300 301 302 301 300 301 301 304
132 287 289 253 6 320 338 18 335 316 340 2 333 352 28 354 318 330 245 276 330 312 304 316 321 331 345 322 299 329 349 0 355 350 344 337 337 337 332 330 332 335 330 324 328 334 335 335 334 333 331 330 333 338 337 333 330 328 327 331 332 329 326 324 324 323 320 317 315 313 311 309 306 303 299 299 306 309 307 309 310 307 305 304 302 300
353 152 262 295 340 348 341 333 312 308 321 357 3 355 358 13 328 320 324 128 17 317 312 316 311 320 345 251 278 336 358 4 351 345 339 335 337 335 331 335 337 329 324 330 341 338 333 335 338 338 339 341 345 346 341 334 330 335 339 337 335 331 327 325 324 323 319 316 314 313 310 308 306 305 302 301 303 304 304 307 307 306 304 301 298 296
357 164 256 302 330 334 319 299 270 280 261 25 7 9 3 11 358 335 324 28 39 318 304 303 299 314 338 236 308 349 0 357 350 344 338 335 333 329 334 341 334 328 336 347 344 336 338 349 351 349 351 351 348 343 337 329 328 338 340 337 334 330 326 324 324 323 320 317 314 312 310 309 307 307 306 306 305 304 305 306 305 305 303 300 298 294
155 122 256 287 285 280 292 313 20 21 96 90 36 41 37 42 47 2 306 317 334 301 289 291 294 307 317 283 338 357 1 351 350 344 335 329 326 331 342 339 334 344 355 349 344 351 0 4 359 353 349 344 339 336 331 327 331 341 341 339 335 329 325 324 324 322 319 316 314 311 311 311 310 309 310 312 314 312 310 308 305 304 302 300 298 293
112 67 331 305 285 260 279 346 48 22 31 20 22 45 41 48 49 255 251 291 313 312 318 302 290 304 332 343 347 1 359 347 344 337 328 325 329 343 342 336 347 358 351 349 0 7 4 358 352 345 339 336 335 334 333 334 340 344 343 340 333 326 326 327 326 323 320 316 314 312 313 313 314 313 312 314 314 311 309 307 304 301 299 298 296 294
324 17 359 334 329 328 339 356 333 329 359 349 3 52 39 24 356 316 279 334 321 313 322 312 298 309 327 341 349 359 351 341 335 328 326 329 340 344 338 341 358 354 349 1 12 3 354 350 348 343 340 342 342 340 340 341 341 338 335 333 330 329 330 328 324 323 321 318 316 315 317 317 317 315 313 311 309 306 306 305 302 300 298 296 296 297
318 347 57 22 335 324 326 324 318 326 335 333 10 48 24 9 5 338 331 355 333 312 315 310 300 307 320 336 347 352 345 336 330 331 334 340 343 339 339 350 356 350 355 9 5 354 349 349 348 347 346 346 342 338 336 335 332 330 331 334 336 335 329 324 323 323 322 321 320 318 318 318 316 314 310 307 305 304 303 301 299 298 297 296 296 297
89 34 220 178 212 272 288 290 301 314 314 316 343 20 4 349 4 355 343 343 325 316 313 302 302 310 321 335 347 348 340 332 331 336 339 342 341 339 344 352 349 348 355 1 354 346 346 348 348 345 343 341 337 334 332 330 330 333 338 339 337 331 325 324 326 325 324 324 322 319 317 314 311 309 307 305 304 302 300 299 298 298 297 295 294 293
88 305 252 204 224 249 269 280 291 301 298 307 339 7 355 342 347 1 354 333 328 322 311 313 320 319 320 334 346 341 334 332 335 338 341 339 336 341 349 349 347 348 350 352 349 347 348 350 347 343 340 338 336 335 336 338 339 341 340 336 332 329 328 329 329 327 326 325 323 320 317 314 311 309 308 307 305 304 304 302 300 298 297 295 292 291
114 261 250 242 276 274 276 282 287 289 284 313 19 360 347 346 348 352 341 327 329 320 304 315 323 321 319 333 341 335 332 335 334 335 338 334 335 347 351 346 348 348 343 342 347 354 356 349 342 341 340 339 339 340 344 346 343 337 333 331 331 332 332 332 331 330 328 326 324 322 321 319 317 315 314 313 312 311 309 307 304 301 298 296 293 291
132 260 241 267 294 293 291 286 283 294 310 5 41 343 345 350 346 341 325 316 318 306 301 312 319 317 323 333 331 330 334 333 331 334 335 334 341 352 349 346 349 345 339 340 348 356 355 345 342 343 342 343 344 342 342 344 341 336 333 332 333 333 333 333 332 331 329 327 326 325 324 323 321 320 318 316 315 313 311 310 308 305 303 299 296 293
33 307 313 68 309 296 290 292 306 320 332 2 3 343 352 349 341 334 321 319 318 310 313 324 321 316 325 331 328 333 337 333 334 337 335 337 348 351 349 351 348 340 337 345 354 353 347 343 346 348 346 344 341 338 337 340 340 337 334 333 333 333 333 333 332 331 330 328 327 326 325 324 323 321 320 318 316 314 312 311 308 305 303 300 297 295
26 324 328 42 344 299 308 340 329 320 330 49 2 352 355 344 332 328 326 330 331 327 334 341 327 320 332 337 334 337 338 335 335 334 331 338 353 354 352 349 341 338 342 353 356 349 342 344 348 348 344 340 339 338 340 341 338 335 335 335 334 333 334 333 332 331 330 329 327 327 326 325 324 321 320 318 316 314 312 310 307 305 302 300 298 295
57 354 328 2 335 308 329 343 320 310 332 35 312 349 350 336 332 332 333 338 344 355 351 339 330 330 336 338 335 333 335 335 333 328 327 340 356 356 351 342 336 342 352 356 351 344 343 346 347 344 341 339 339 339 340 340 337 334 335 335 334 334 333 333 332 331 329 328 328 327 326 325 323 321 319 317 316 314 313 311 308 305 302 300 297 292
50 13 323 358 330 307 319 326 315 329 0 313 215 28 353 338 343 340 334 336 350 29 357 333 331 332 334 338 335 328 328 332 325 316 325 359 1 350 345 340 339 346 353 352 346 343 346 347 344 341 340 340 340 339 338 339 336 334 335 334 334 334 334 332 331 329 328 328 328 327 326 324 322 320 318 317 317 315 313 310 307 305 303 301 298 294
16 354 311 146 167 275 308 342 351 358 357 214 148 42 356 339 345 338 328 330 354 7 350 337 330 332 335 335 330 323 322 323 315 308 344 22 5 346 342 340 343 350 351 347 343 344 347 346 341 340 340 340 339 338 338 338 337 335 335 335 334 334 333 332 330 329 328 328 327 326 326 324 322 320 318 318 318 316 313 311 309 308 306 304 302 300
85 8 317 320 288 293 334 12 351 310 311 137 118 4 355 352 349 336 326 333 24 14 350 336 329 335 337 331 329 328 322 317 307 305 26 23 359 349 345 341 346 352 348 343 341 343 348 345 340 338 338 338 338 338 337 337 337 335 335 335 335 333 333 332 331 330 329 328 327 326 326 324 322 319 319 319 318 316 315 314 313 313 313 310 307 306
118 94 28 345 351 346 335 324 247 264 304 24 341 335 350 345 335 329 318 324 21 20 353 338 334 338 337 332 335 333 325 322 310 303 39 9 353 351 347 343 348 348 344 342 339 340 345 343 338 337 337 336 337 337 337 336 336 336 334 334 334 333 333 333 331 330 330 328 327 326 325 323 321 319 318 319 317 315 315 315 314 316 318 314 310 311
70 75 102 348 347 74 342 320 313 312 313 285 303 319 333 326 324 327 280 279 1 10 356 348 340 337 336 334 337 335 333 336 333 333 360 352 347 349 346 345 347 344 342 342 338 337 341 339 336 336 336 336 337 337 336 336 336 336 334 334 334 334 333 333 332 331 329 327 326 325 324 324 322 320 318 316 315 314 314 315 315 318 320 316 311 312
36 36 98 73 356 32 21 334 318 310 287 227 303 315 336 328 323 329 292 275 356 2 355 352 343 338 338 335 336 340 344 341 327 323 342 344 343 345 345 344 344 341 341 340 337 336 338 336 335 336 336 337 337 336 336 336 336 336 334 334 334 334 334 333 332 331 328 326 325 325 324 325 323 322 319 317 317 317 318 319 320 322 322 317 312 312
23 8 42 43 313 294 24 243 258 259 246 301 324 330 336 317 314 348 338 323 347 353 350 351 343 337 338 335 334 343 346 326 312 315 330 336 337 340 342 341 340 339 338 338 336 336 336 335 336 336 336 336 335 334 335 336 336 336 335 334 335 334 334 333 330 329 327 325 325 325 326 326 325 324 323 321 320 321 321 322 323 324 323 321 319 319
359 348 31 18 268 262 216 221 274 263 240 287 313 329 333 318 321 23 334 314 335 341 339 346 342 333 337 336 330 329 317 308 306 311 323 331 333 335 339 338 336 335 336 335 334 336 336 336 336 335 334 333 332 333 335 336 336 335 334 334 335 333 332 331 329 328 327 326 326 327 328 328 328 327 327 326 325 325 326 327 327 326 326 326 325 324
328 321 326 281 270 274 213 220 291 268 223 293 319 337 7 353 340 332 312 309 329 331 329 340 338 331 334 330 318 313 308 309 313 317 324 330 331 332 335 335 333 333 334 333 334 337 337 335 334 333 333 332 332 333 335 336 336 335 333 334 333 332 331 331 330 330 329 328 328 329 329 331 331 331 331 331 332 330 329 331 331 329 328 327 326 325
198 288 315 292 250 309 342 8 337 294 284 5 354 356 35 22 319 301 313 319 324 325 327 332 330 332 334 324 316 316 312 313 320 323 325 328 328 330 332 332 332 332 332 333 334 337 337 335 333 333 331 331 332 334 336 337 336 334 333 332 331 332 332 332 332 331 330 330 330 331 332 332 333 335 334 334 334 332 329 331 333 331 331 329 326 325
189 155 261 282 251 20 359 184 242 279 311 18 13 360 16 359 308 326 328 316 321 334 332 324 324 331 331 322 318 317 315 317 323 325 326 326 326 329 330 330 330 331 331 332 332 334 336 334 332 331 330 330 333 335 337 337 335 333 332 332 332 333 333 333 333 332 332 332 332 333 334 334 335 336 336 336 335 332 330 332 332 331 332 333 330 328
209 174 177 221 218 220 244 245 261 285 315 28 55 81 63 18 43 15 330 308 319 333 331 325 325 326 326 323 319 315 314 321 323 324 325 324 324 328 328 327 329 330 329 330 331 333 335 333 330 330 329 330 334 337 338 338 335 332 332 333 335 335 334 334 334 333 333 333 334 334 335 336 337 338 338 338 338 335 332 332 331 331 333 335 333 329
223 158 133 157 256 268 258 257 271 294 327 353 24 74 64 53 51 9 331 314 319 326 329 328 321 318 322 324 319 314 316 322 323 321 321 322 322 326 327 326 328 329 329 330 331 333 334 332 331 332 331 332 335 338 338 338 336 333 332 334 336 336 335 335 335 334 334 334 335 336 337 337 338 339 339 340 340 338 335 333 331 330 331 333 332 328
272 149 132 166 267 315 281 260 268 299 306 316 338 52 40 49 60 16 341 324 321 325 330 325 317 316 321 323 319 316 318 322 323 320 320 322 323 325 327 327 328 329 329 329 330 331 333 332 332 333 332 332 335 338 338 338 338 336 336 336 337 337 337 337 336 335 335 335 336 337 338 338 338 338 339 340 341 340 340 339 337 332 329 329 328 325
202 181 206 205 195 229 260 274 308 311 284 278 99 65 6 23 26 9 2 336 326 326 326 322 317 317 320 321 320 318 318 321 323 321 320 322 323 324 327 327 327 328 328 328 329 331 332 332 332 332 331 331 334 337 338 338 338 339 339 339 339 340 339 338 338 336 335 336 337 338 339 339 338 338 338 339 340 340 339 340 339 334 333 335 332 325
134 171 203 204 229 254 265 286 333 324 287 260 116 79 45 52 345 334 343 337 332 329 324 319 317 317 319 320 321 320 318 319 322 322 322 321 322 323 325 326 327 327 326 326 329 330 331 331 331 330 330 331 334 337 338 338 339 341 341 341 341 341 340 339 337 336 336 337 338 338 339 339 339 339 339 338 340 342 342 343 342 337 338 344 344 341
141 197 192 144 278 273 271 271 358 326 291 272 34 74 98 112 335 322 337 341 338 333 325 318 315 315 316 318 322 323 317 316 322 324 322 321 321 322 323 325 326 325 324 325 327 329 330 331 331 330 330 331 335 337 338 338 340 342 343 343 343 343 341 339 337 336 337 338 338 338 338 338 339 340 340 340 340 341 343 349 352 351 349 350 351 353
182 196 176 170 239 259 250 181 164 210 266 276 325 79 113 93 31 1 353 343 331 327 325 318 313 315 316 317 323 324 318 317 323 324 321 320 321 321 322 324 325 324 324 325 327 328 330 331 332 332 331 333 336 338 338 339 341 343 344 344 345 344 342 341 338 336 336 337 337 337 338 338 338 340 340 341 342 341 341 346 351 354 357 358 356 357